Change the Weather History Date:

Thursday, February 21, 2013

  Actual Average Record
Temperature  
Mean Temperature 17 °F 22 °F  
Max Temperature 26 °F 31 °F 63 °F (1981)
Min Temperature 7 °F 14 °F -16 °F (1963)
Degree Days  
Heating Degree Days 48 43  
Month to date heating degree days 922 960  
Since 1 July heating degree days 5316 5631  
Cooling Degree Days 0 0  
Month to date cooling degree days 0 0  
Year to date cooling degree days 0 0  
Moisture  
Dew Point 9 °F    
Average Humidity 69    
Maximum Humidity 92    
Minimum Humidity 46    
Precipitation  
Precipitation 0.01 in 0.01 in 0.40 in (1957)
Month to date precipitation 0.44 0.26  
Sea Level Pressure  
Sea Level Pressure 30.20 in    
Wind  
Wind Speed 13 mph (ENE)    
Max Wind Speed 25 mph    
Max Gust Speed 29 mph    
Visibility 7 miles    
Events Fog , Snow    
T = Trace of Precipitation, MM = Missing Value Source: NWS Daily Summary

Daily Weather History Graph

Daily Weather History Graph

Search for Another Location

Airport or City:

Trip Planner

Search our weather history database for the weather conditions in past years. The results will help you decide how hot, cold, wet, or windy it might be!

Date:

Astronomy

Feb. 21, 2013 Rise Set
Actual Time 7:07 AM CST 5:58 PM CST
Civil Twilight 6:38 AM CST 6:27 PM CST
Nautical Twilight 6:05 AM CST 7:00 PM CST
Astronomical Twilight 5:32 AM CST 7:33 PM CST
Moon 2:09 PM CST (2/21) 4:17 AM CST (2/21)
Length of Visible Light 11h 48m
Length of Day
10h 50m
Waxing Gibbous, 84% of the Moon is Illuminated
Feb 21
Waxing Gibbous
Feb 25
Full
Mar 4
Last Quarter
Mar 11
New
Mar 19
First Quarter

Hourly Weather History & Observations

Time (CST) Temp. Windchill Dew Point Humidity Pressure Visibility Wind Dir Wind Speed Gust Speed Precip Events Conditions
12:52 AM 10.0 °F 1.8 °F 6.1 °F 84% 30.40 in 10.0 mi SE 4.6 mph - N/A   Scattered Clouds
1:52 AM 9.0 °F 0.6 °F 3.9 °F 80% 30.40 in 10.0 mi ESE 4.6 mph - N/A   Clear
2:52 AM 9.0 °F -0.9 °F 5.0 °F 84% 30.37 in 10.0 mi ENE 5.8 mph - N/A   Scattered Clouds
3:52 AM 9.0 °F -4.2 °F 5.0 °F 84% 30.34 in 10.0 mi ENE 9.2 mph - N/A   Partly Cloudy
4:52 AM 9.0 °F -4.2 °F 5.0 °F 84% 30.29 in 10.0 mi ENE 9.2 mph - N/A   Clear
5:22 AM 8.6 °F 0.1 °F 3.2 °F 79% 30.30 in 10.0 mi South 4.6 mph - N/A   Clear
6:52 AM 9.0 °F -2.2 °F 3.9 °F 80% 30.34 in 10.0 mi NE 6.9 mph - N/A   Clear
7:52 AM 10.0 °F -1.9 °F 6.1 °F 84% 30.34 in 10.0 mi ENE 8.1 mph - N/A   Clear
8:52 AM 12.9 °F -0.2 °F 7.0 °F 77% 30.32 in 10.0 mi East 10.4 mph - N/A   Clear
9:52 AM 16.0 °F 3.6 °F 8.1 °F 71% 30.33 in 10.0 mi East 10.4 mph - N/A   Clear
10:52 AM 19.0 °F 4.5 °F 9.0 °F 65% 30.31 in 10.0 mi East 16.1 mph - N/A   Partly Cloudy
11:52 AM 21.9 °F 8.7 °F 9.0 °F 58% 30.27 in 10.0 mi East 15.0 mph - N/A   Partly Cloudy
12:52 PM 24.1 °F 11.0 °F 9.0 °F 53% 30.22 in 10.0 mi East 16.1 mph 24.2 mph N/A   Partly Cloudy
1:52 PM 26.1 °F 12.3 °F 9.0 °F 49% 30.17 in 10.0 mi East 19.6 mph 25.3 mph N/A   Partly Cloudy
2:52 PM 25.0 °F 11.7 °F 10.0 °F 53% 30.16 in 10.0 mi ENE 17.3 mph - N/A   Overcast
3:52 PM 24.1 °F 11.5 °F 10.9 °F 57% 30.15 in 10.0 mi ENE 15.0 mph - N/A   Overcast
4:52 PM 24.1 °F 10.6 °F 10.9 °F 57% 30.15 in 10.0 mi ENE 17.3 mph - N/A   Overcast
5:52 PM 21.9 °F 6.2 °F 12.0 °F 66% 30.12 in 10.0 mi NE 21.9 mph - N/A   Overcast
6:52 PM 21.0 °F 6.6 °F 12.0 °F 68% 30.12 in 10.0 mi ENE 17.3 mph - N/A   Overcast
7:34 PM 19.4 °F 2.5 °F 12.2 °F 74% 30.03 in 2.5 mi ENE 23.0 mph 27.6 mph 0.00 in Snow Light Snow
7:52 PM 19.0 °F 2.4 °F 14.0 °F 81% 30.10 in 1.2 mi ENE 21.9 mph 25.3 mph 0.00 in Snow Light Snow
7:57 PM 19.4 °F 3.2 °F 14.0 °F 80% 30.02 in 0.8 mi ENE 20.7 mph - 0.00 in Snow Light Snow
8:15 PM 19.4 °F 3.6 °F 15.8 °F 86% 30.02 in 0.8 mi ENE 19.6 mph - 0.00 in Snow Light Snow
9:52 PM 17.1 °F 2.5 °F 14.0 °F 88% 30.06 in 0.5 mi NE 15.0 mph - 0.00 in Fog , Snow Snow
10:52 PM 17.1 °F 1.5 °F 14.0 °F 88% 30.03 in 0.8 mi NE 17.3 mph - 0.01 in Snow Light Snow
11:07 PM 15.8 °F 0.3 °F 12.2 °F 86% 29.95 in 1.0 mi NE 16.1 mph - 0.00 in Snow Light Snow
11:52 PM 16.0 °F 0.1 °F 12.9 °F 88% 29.99 in 1.2 mi NE 17.3 mph - 0.00 in Snow Light Snow